Tracking 25648 objects as of 16-May-2022
HD Live streaming from Space Station
objects crossing your sky now

COSMOS 2251 DEB

Track COSMOS 2251 DEB now!
10-day predictions


NORAD ID: 36479
Int'l Code: 1993-036BCE
Perigee: 458.4 km
Apogee: 495.5 km
Inclination: 74.0 °
Period: 94.0 minutes
Semi major axis: 6847 km
RCS: 0.0084 m2 (small)
Launch date: June 16, 1993
Source: Commonwealth of Independent States (former USSR) (CIS)
Launch site: PLESETSK MISSILE AND SPACE COMPLEX (PKMTR)

Note: This is SATELLITE DEBRIS
aabbcc
Your satellite tracking list
Your tracking list is empty




NASA's NSSDC Master Catalog

Two Line Element Set (TLE):
1 36479U 93036BCE 22135.86670248  .00130986  00000-0  41191-2 0  9999
2 36479  74.0044  99.2025 0027092 151.7322 208.5359 15.32012036690198
Source of the keplerian elements: AFSPC